Regional Weather Roundup
Issued by NWS

Home | Current Version | Previous Version | Graphics & Text | Print | Product List | Glossary On
Versions: 1 2 3 4 5 6 7 8 9 10 11 12 13 14 15 16 17 18 19 20 21 22 23 24 25 26 27 28 29 30 31 32 33 34 35 36 37 38 39 40 41 42 43 44 45 46 47 48 49 50
000
ASUS45 KBOU 242107
RWRCO

WEATHER ROUNDUP FOR COLORADO
NATIONAL WEATHER SERVICE DENVER/BOULDER CO
300 PM MDT SUN SEP 24 2017

NOTE: "FAIR" INDICATES FEW OR NO CLOUDS BELOW 12000 FEET WITH NO
SIGNIFICANT WEATHER AND/OR OBSTRUCTIONS TO VISIBILITY.

COZ001>005-013-030-031-242200-
...NORTHWEST COLORADO...

CITY           SKY/WX    TMP DP  RH WIND       PRES   REMARKS
CRAIG          FAIR      62  23  22 SW13G26   29.90S
HAYDEN         FAIR      54  29  38 NW13      29.92F
MEEKER         FAIR      59  20  22 SW28      29.92R
RABBIT EARS PA CLOUDY    37  32  81 NW9G20    30.03F
STEAMBOAT SPGS PTSUNNY   51  33  50 W12       29.92S
WALDEN         PTSUNNY   46  37  71 N20       29.95S
$$

COZ006>008-011-242200-
...WEST CENTRAL VALLEYS...

CITY           SKY/WX    TMP DP  RH WIND       PRES   REMARKS
GRAND JUNCTION FAIR      61  27  27 NW13      29.92S
MONTROSE       FAIR      60  25  26 W18G25    29.94R
EAGLE          FAIR      59  28  30 W15       29.90R
RIFLE          FAIR      62  27  26 W16G28    29.91R
DELTA          NOT AVBL
NUCLA          FAIR      59  18  20 SW21G29   30.01R
$$

COZ017>023-064>068-242200-
...SOUTHWEST COLORADO...

CITY           SKY/WX    TMP DP  RH WIND       PRES   REMARKS
DURANGO        FAIR      59  19  21 SW13G26   30.00R
CORTEZ         FAIR      59  23  25 S12       30.00S
PAGOSA SPRINGS FAIR      58  18  21 SW14G22   30.03F THUNDER
TELLURIDE      FAIR      49  18  29 SW14G21   30.05R
WOLF CREEK PAS PTSUNNY   32  25  74 S17G26    30.20S WCI  21
$$

COZ009-010-012-014-032>034-037-058>063-242200-
...CENTRAL COLORADO...

CITY           SKY/WX    TMP DP  RH WIND       PRES   REMARKS
ASPEN          FAIR      56  32  40 NW12G24   29.91R
BUENA VISTA    FAIR      59  15  18 SE17G29   29.93F
COPPER MTN     CLOUDY    41  18  38 SE17G37   30.08S
BERTHOUD PASS  HAZE      27  19  74 SE21G41   30.12S VSB<1/4 WCI  13
COTTONWOOD PAS PTSUNNY   57  18  21 SE21G30   30.00S
GUNNISON       FAIR      62  13  14 SW15G26   29.90R
KREMMLING      PTSUNNY   63  27  25 S6        29.88S
LEADVILLE      PTSUNNY   50  13  22 S20G28    29.97S
MONARCH PASS   FAIR      43  18  36 S25G35    30.21F
SALIDA         FAIR      64  18  16 SE17G28   29.98F
SUNLIGHT       PTSUNNY   32  28  86 SW13G23   30.09R WCI  22
WILKERSON PASS FAIR      45  32  61 SW10G18   30.14S
$$

COZ069>075-242200-
...SAN LUIS VALLEY/SANGRE DE CRISTO MOUNTAINS...

CITY           SKY/WX    TMP DP  RH WIND       PRES   REMARKS
ALAMOSA        FAIR      63  19  18 SW26G32   29.96F
DEL NORTE      FAIR      60  16  18 SW17G24   29.98S
LA VETA PASS   FAIR      54  30  40 MISG      30.21F
SAGUACHE       FAIR      63  18  17 SW17G25   29.95S
$$

COZ035-036-038>040-242200-
...NORTHERN COLORADO FRONT RANGE...

CITY           SKY/WX    TMP DP  RH WIND       PRES   REMARKS
DENVER INTL AP CLOUDY    49  44  83 E14       29.98F
DMNS CITY PARK   N/A     48  46  93 N13G18    29.98F
AURORA         CLOUDY    47  47  99 NE13      29.99F
FRONT RANGE AP CLOUDY    50  48  93 E14       30.00F
ERIE MUNI ARPT CLOUDY    49  45  84 E10       30.05R
BOULDER MUN AP DRIZZLE   46  46 100 E5        30.00R
CENTENNIAL     LGT RAIN  48  46  93 E15       29.98S
BROOMFIELD     LGT RAIN  48  46  93 E9        30.00S
FORT COLLINS   CLOUDY    48  45  89 E10       30.00F
LONGMONT       CLOUDY    50  46  86 E7        30.01S FOG
$$

COZ041-046-047-076>085-087-088-242200-
...PIKES PEAK/PALMER DIVIDE AND SOUTHERN FOOTHILLS...

CITY           SKY/WX    TMP DP  RH WIND       PRES   REMARKS
COLO. SPRINGS  PTSUNNY   55  48  77 SE10      29.98S
A. F. ACADEMY  CLOUDY    57  43  60 SE12      29.97F
SCHRIEVER AFB  PTSUNNY   54  46  76 E9        29.98F
CHEYENNE MTN   PTSUNNY   49  45  85 S9        29.94S
ELLICOTT       PTSUNNY  N/A N/A N/A E10       29.97S
FALCON         CLOUDY    53  46  78 SE8       30.01F
FORT CARSON    CLOUDY    54  48  80 SE10      29.96S
LIMON            N/A    N/A N/A N/A MISG      29.98F
MONUMENT HILL  CLOUDY    50  45  81 SE13G18   30.01S
CANON CITY     CLOUDY    57  48  72 E12       29.94F
WALSENBURG     CLOUDY    57  50  77 E10       29.95S
TRINIDAD       FAIR      55  52  89 E9        29.92F
$$

COZ042>045-048>051-090-091-242200-
...NORTHEAST COLORADO...

CITY           SKY/WX    TMP DP  RH WIND       PRES   REMARKS
GREELEY ARPT   CLOUDY    49  46  90 E12       30.00F
AKRON          CLOUDY    50  45  83 NE13      29.99F
BURLINGTON     CLOUDY    53  51  93 NE12      29.97F
WRAY           CLOUDY    52  50  93 E9        29.99S
YUMA           CLOUDY    48  45  87 NE10      29.99S
STERLING       CLOUDY    50  48  93 NE5       29.99F
HOLYOKE        CLOUDY    54  48  82 NE10      30.00F
FORT MORGAN    CLOUDY    51  47  88 E12       30.00F
$$

COZ086-089-092>099-242200-
...SOUTHEAST COLORADO...

CITY           SKY/WX    TMP DP  RH WIND       PRES   REMARKS
PUEBLO         CLOUDY    56  50  80 E8        29.93F
LA JUNTA       CLOUDY    57  55  93 NE10      29.92S FOG
LAMAR          CLOUDY    60  57  89 NE12      29.88F
SPRINGFIELD      N/A     66  61  84 CALM      29.88F
$$



USA.gov is the U.S. government's official web portal to all federal, state and local government web resources and services.